This is the latest recevied weather packets stored in our database for station/object K3HW. If no packets are shown the sender has not sent any weather packets the latest 10 day(s).
| Time | Temp. | Humidity | Pressure | Rain* | Wind** | Luminosity | Snow |
|---|---|---|---|---|---|---|---|
| 1777984198 | 18.89° C | 60% | 1015.1 hPa | 0 mm | - | 46 W/m² | - |
| 1777983895 | 18.33° C | 60% | 1014.9 hPa | 0 mm | - | 44 W/m² | - |
| 1777982985 | 17.78° C | 61% | 1014.7 hPa | 0 mm | - | 47 W/m² | - |
| 1777982682 | 17.78° C | 61% | 1014.6 hPa | 0 mm | - | 38 W/m² | - |
| 1777981168 | 17.22° C | 63% | 1014.6 hPa | 0 mm | - | 30 W/m² | - |
| 1777980865 | 17.22° C | 63% | 1014.8 hPa | 0 mm | - | 32 W/m² | - |
| 1777980560 | 17.22° C | 64% | 1014.5 hPa | 0 mm | - | 29 W/m² | - |
| 1777980258 | 16.67° C | 64% | 1014.4 hPa | 0 mm | - | 53 W/m² | - |
| 1777979954 | 16.67° C | 66% | 1014.6 hPa | 0 mm | - | 37 W/m² | - |
| 1777979649 | 16.11° C | 66% | 1014.4 hPa | 0 mm | - | 43 W/m² | - |
| 1777979042 | 14.44° C | 71% | 1014.3 hPa | 0 mm | - | 26 W/m² | - |
| 1777978739 | 13.33° C | 75% | 1014.5 hPa | 0 mm | - | 26 W/m² | - |
| 1777977525 | 12.78° C | 77% | 1014.3 hPa | 0 mm | - | 13 W/m² | - |
| 1777977223 | 12.22° C | 77% | 1014.1 hPa | 0 mm | - | 12 W/m² | - |
| 1777976920 | 12.22° C | 77% | 1014.4 hPa | 0 mm | - | 10 W/m² | - |
| 1777976618 | 12.22° C | 77% | 1014.1 hPa | 0 mm | - | 8 W/m² | - |
| 1777976313 | 12.22° C | 76% | 1014.2 hPa | 0 mm | - | 6 W/m² | - |
| 1777976008 | 12.22° C | 76% | 1014.1 hPa | 0 mm | - | 5 W/m² | - |
| 1777975704 | 12.22° C | 76% | 1014.1 hPa | 0 mm | - | 4 W/m² | - |
| 1777975096 | 12.78° C | 75% | 1013.7 hPa | 0 mm | - | 2 W/m² | - |
| 1777974794 | 12.78° C | 74% | 1014 hPa | 0 mm | - | 1 W/m² | - |
| 1777974490 | 13.33° C | 73% | 1014 hPa | 0 mm | - | 0 W/m² | - |
| 1777973882 | 13.33° C | 72% | 1013.7 hPa | 0 mm | - | 0 W/m² | - |
| 1777973581 | 13.89° C | 71% | 1013.6 hPa | 0 mm | - | 0 W/m² | - |
| 1777973277 | 13.89° C | 71% | 1013.9 hPa | 0 mm | - | 0 W/m² | - |
* Rain latest hour (hover to see other rain measurements)
** Current wind speed in m/s (hover to see current wind gust speed)